INTELSAT 22 (IS-22) 1 38098U 12011A 21065.71569862 -.00000075 00000-0 00000+0 0 9993 2 38098 0.0212 120.8965 0002739 227.1827 146.3085 1.00272479 32718 BREEZE-M R/B 1 38099U 12011B 21065.11637991 -.00000169 00000-0 00000-0 0 9992 2 38099 30.9905 16.3813 7788860 31.4307 357.0992 1.11833316 36394 BREEZE-M DEB [TANK] 1 38100U 12011C 21065.06958843 .00001050 00000-0 38736-3 0 9990 2 38100 50.6973 316.8732 5074466 56.5103 342.1789 5.43457418176959